Regional Weather Roundup
Issued by NWS

Home | Current Version | Previous Version | Graphics & Text | Print | Product List | Glossary Off
Versions: 1 2 3 4 5 6 7 8 9 10 11 12 13 14 15 16 17 18 19 20 21 22 23 24 25 26 27 28 29 30 31 32 33 34 35 36 37 38 39 40 41 42 43 44 45 46 47 48 49 50

000
ASUS43 KFSD 232302
RWRSD

WEATHER ROUNDUP FOR SOUTH DAKOTA
NATIONAL WEATHER SERVICE SIOUX FALLS SD
500 PM CST SUN NOV 23 2014

NOTE: "FAIR" INDICATES FEW OR NO CLOUDS BELOW 12,000 FEET WITH NO
SIGNIFICANT WEATHER AND/OR OBSTRUCTIONS TO VISIBILITY.


SDZ001>005-009-010-012>017-240000-
NORTHWEST AND NORTH CENTRAL SOUTH DAKOTA

CITY           SKY/WX    TMP DP  RH WIND       PRES   REMARKS
BUFFALO          N/A     29  19  66 NW28G37   29.66R WCI  14
FAITH            N/A     29  18  63 NW23G30   29.68R WCI  15
MOBRIDGE       CLOUDY    29  19  66 NW28G36   29.61R WCI  14
$$

SDZ012>016-024>037-041>051-057-063-072>074-240000-
SOUTHWEST AND SOUTH CENTRAL SOUTH DAKOTA

CITY           SKY/WX    TMP DP  RH WIND       PRES   REMARKS
RAPID CTY ARPT MOCLDY    37  20  50 NW32G47   29.70S
PIERRE         CLOUDY    32  22  66 NW22G31   29.65R WCI  19
CUSTER         FLURRIES  27  15  61 W21G31    29.69R WCI  13
ELLSWORTH AFB  MOCLDY    36  21  53 N31G45    29.69S
PHILIP         CLOUDY   N/A N/A N/A NW22      29.69R
PINE RIDGE     CLOUDY    38  21  50 NW12      29.75R
WINNER         MOCLDY    38  24  57 NW33G41   29.64R
$$

SDZ004>011-016>023-039-040-240000-
NORTHEAST SOUTH DAKOTA

CITY           SKY/WX    TMP DP  RH WIND       PRES   REMARKS
ABERDEEN       CLOUDY    28  19  69 NW26G32   29.59R WCI  13
WATERTOWN      CLOUDY    31  23  72 NW22G33   29.51R WCI  18
SISSETON         N/A     31  24  75 NW25      29.51R WCI  17
$$

SDZ017-020-022-023-036>040-048>070-240000-
SOUTHEAST SOUTH DAKOTA

CITY           SKY/WX    TMP DP  RH WIND       PRES   REMARKS
SIOUX FALLS    CLOUDY    38  29  70 NW15      29.53R
HURON          CLOUDY    32  22  66 NW28G33   29.59R WCI  18
YANKTON        MOCLDY    41  28  60 NW17G23   29.56S
$$

ABBREVIATIONS USED IN REMARKS
   TC - TEMPERATURE IN CELSIUS
  WCI - WIND CHILL INDEX
   HX - HEAT INDEX
  VSB - VISIBILITY



USA.gov is the U.S. government's official web portal to all federal, state and local government web resources and services.